Regional Weather Roundup
Issued by NWS

Home | Current Version | Previous Version | Graphics & Text | Print | Product List | Glossary On
Versions: 1 2 3 4 5 6 7 8 9 10 11 12 13 14 15 16 17 18 19 20 21 22 23 24 25 26 27 28 29 30 31 32 33 34 35 36 37 38 39 40 41 42 43 44 45 46 47 48 49 50
000
ASUS43 KIND 250909
RWRIN

WEATHER ROUNDUP FOR INDIANA
NATIONAL WEATHER SERVICE INDIANAPOLIS IN
400 AM EST SUN FEB 25 2018

NOTE: "FAIR" INDICATES FEW OR NO CLOUDS BELOW 12,000 FEET WITH NO
SIGNIFICANT WEATHER AND/OR OBSTRUCTIONS TO VISIBILITY.

* - STATION DOES NOT REPORT WEATHER SUCH AS PRECIPITATION OR FOG.

+ - STATION NOT QUALITY CONTROLLED BY THE NATIONAL WEATHER SERVICE.
    USE DATA WITH CAUTION...ESPECIALLY DEWPOINT AND RELATIVE
    HUMIDITY OBSERVATIONS.

INZ001>003-010>013-019-020-251000-
NORTHWEST INDIANA

CITY           SKY/WX    TMP DP  RH WIND       PRES   REMARKS
GARY /AIRPORT/ CLOUDY    39  32  76 W25G33    29.66R WCI  28
LA PORTE +     CLOUDY    40  37  87 W24G32    29.64R WCI  30
MONTICELLO +   CLOUDY    41  35  79 W26G44    29.73R
RENSSELAER +   CLOUDY    37  32  81 W25G36    29.73R WCI  26
VALPARAISO     CLOUDY    40  34  79 W29G41    29.67R WCI  29

$$

LMZ046-743>745-251000-
SOUTHERN LAKE MICHIGAN

STATION/POSITION TIME  TEMP    WIND        PRES    WAVE
                       AIR SEA DIR/SP/G            HT
                 (UTC) (F)     (DEG/KT/KT) (MB)    (FT)
BURNS HARBOR     0857   39     260/ 25/ 35 1004.1R
MICHIGAN CITY    0840   38     240/ 42/ 48   N/A

$$

INZ004-005-014>016-021>024-251000-
NORTH CENTRAL INDIANA

CITY           SKY/WX    TMP DP  RH WIND       PRES   REMARKS
GOSHEN         CLOUDY    49  44  83 W31G47    29.56R
LOGANSPORT +   CLOUDY    43  37  81 W25G45    29.71R
PERU/GRISSOM   CLOUDY    45  45 100 SW29G39   29.68R
ROCHESTER +    CLOUDY    46  41  81 W26G41    29.66R
SOUTH BEND     CLOUDY    44  39  82 W24G40    29.58R
WARSAW +       CLOUDY    46  43  87 W28G35    29.60R

$$

INZ006>009-017-018-025>027-251000-
NORTHEAST INDIANA

CITY           SKY/WX    TMP DP  RH WIND       PRES   REMARKS
AUBURN +       MOCLDY    52  46  82 W17G35    29.56R
FORT WAYNE     CLOUDY    51  45  79 W38G51    29.58R
HUNTINGTON +   CLOUDY    46  45  95 W32G46    29.63R
KENDALLVILLE + MOCLDY    51  48  88 W36G44    29.54R

$$

INZ028-029-035-036-043>045-051>053-251000-
WEST CENTRAL INDIANA

CITY           SKY/WX    TMP DP  RH WIND       PRES   REMARKS
CRAWFORDSVL +  CLOUDY    41  37  84 W29G35      N/A
GREENCASTLE +  MOCLDY    43  34  70 W15G26    29.80R
LAFAYETTE      CLOUDY    42  35  76 W23G37    29.75R
TERRE HAUTE    CLOUDY    45  37  73 W16G28    29.84R

$$

INZ030>032-037>040-046>048-054>057-064-065-251000-
CENTRAL INDIANA

CITY           SKY/WX    TMP DP  RH WIND       PRES   REMARKS
FISHERS *+       N/A     46  41  81 W20G28    29.75R
FRANKFORT +    CLOUDY    46  40  78 W32G38    29.76R
GREENWOOD *+   CLOUDY    46 -43   2 W25G37    29.75R
INDIANAPOLIS   CLOUDY    46  39  76 W29G37    29.76R
-EAGLE CREEK   FAIR      47  37  68 W22G36    29.74R
KOKOMO +       CLOUDY    45  40  82 W33G41    29.69R
MARION +       CLOUDY    47  44  87 W30G38    29.70R
MT COMFORT *+  MOCLDY    46  45  93 W25G38    29.74R
SHELBYVILLE    MOCLDY    50  44  80 W18G33    29.74R
ZIONSVILLE +   CLOUDY    44  40  85 W24G41    29.74R

$$

INZ033-034-041-042-049-050-058-059-251000-
EAST CENTRAL INDIANA

CITY           SKY/WX    TMP DP  RH WIND       PRES   REMARKS
MUNCIE         CLOUDY    51  44  77 W29G41    29.68R
RICHMOND +     MOCLDY    54  54 100 SW25      29.67R

$$

INZ060-061-067>069-081>083-085>088-251000-
SOUTHWEST INDIANA

CITY           SKY/WX    TMP DP  RH WIND       PRES   REMARKS
EVANSVILLE     FAIR      48  39  71 W17G28    29.90R
HUNTINGBURG +  CLOUDY    49  41  74 NW21G31   29.87R
WASHINGTON +   FAIR      46  35  65 W22G30    29.87R

$$

INZ062-063-066-070>080-084-089>092-251000-
SOUTH CENTRAL AND SOUTHEAST INDIANA

CITY           SKY/WX    TMP DP  RH WIND       PRES   REMARKS
BATESVILLE +   CLOUDY    57  57 100 MISG      29.72R
BEDFORD +      CLOUDY    50  45  81 W14G31    29.80R
BLOOMINGTON    CLOUDY    48  39  71 W23G33    29.81R
FRENCH LICK *+ CLOUDY    48  41  76 W13G25    29.85R
MADISON *+     CLOUDY    59  50  72 W15G24    29.78R
NORTH VERNON + CLOUDY    55  50  82 W24G30    29.74R
SEYMOUR +      MOCLDY    57  48  72 W35G40    29.76R

$$





USA.gov is the U.S. government's official web portal to all federal, state and local government web resources and services.